Regional Weather Roundup
Issued by NWS

Home | Current Version | Previous Version | Text Only | Print | Product List | Glossary On
Versions: 1 2 3 4 5 6 7 8 9 10 11 12 13 14 15 16 17 18 19 20 21 22 23 24 25 26 27 28 29 30 31 32 33 34 35 36 37 38 39 40 41 42 43 44 45 46 47 48 49 50
000
ASUS43 KFSD 301410
RWRSD

WEATHER ROUNDUP FOR SOUTH DAKOTA
NATIONAL WEATHER SERVICE SIOUX FALLS SD
900 AM CDT TUE SEP 30 2014

NOTE: "FAIR" INDICATES FEW OR NO CLOUDS BELOW 12,000 FEET WITH NO
SIGNIFICANT WEATHER AND/OR OBSTRUCTIONS TO VISIBILITY.


SDZ001>005-009-010-012>017-301500-
NORTHWEST AND NORTH CENTRAL SOUTH DAKOTA

CITY           SKY/WX    TMP DP  RH WIND       PRES   REMARKS
BUFFALO          N/A     54  54 100 NE13      29.52F
FAITH            N/A     55  55 100 E22       29.52F
MOBRIDGE       CLOUDY    55  52  89 E23G30    29.61F
$$

SDZ012>016-024>037-041>051-057-063-072>074-301500-
SOUTHWEST AND SOUTH CENTRAL SOUTH DAKOTA

CITY           SKY/WX    TMP DP  RH WIND       PRES   REMARKS
RAPID CTY ARPT LGT RAIN  53  50  89 NE14      29.43F
PIERRE         CLOUDY    59  57  93 E24G33    29.54F
CUSTER         RAIN      47  44  90 NW14G22   29.53R FOG
ELLSWORTH AFB  LGT RAIN  54  54 100 NE8G18    29.44  FOG
PHILIP         CLOUDY    58  48  69 SE17G31   29.43F
PINE RIDGE     LGT RAIN  51  50  96 SW23G33   29.46R FOG
WINNER         FAIR      63  52  67 S22G38    29.62R
$$

SDZ004>011-016>023-039-040-301500-
NORTHEAST SOUTH DAKOTA

CITY           SKY/WX    TMP DP  RH WIND       PRES   REMARKS
ABERDEEN       CLOUDY    53  49  86 E15       29.75F
WATERTOWN      CLOUDY    48  45  89 E16G25    29.82F
SISSETON         N/A     46  43  89 SE16G24   29.89F
$$

SDZ017-020-022-023-036>040-048>070-301500-
SOUTHEAST SOUTH DAKOTA

CITY           SKY/WX    TMP DP  RH WIND       PRES   REMARKS
SIOUX FALLS    CLOUDY    54  51  90 SE18      29.84F
HURON          LGT RAIN  55  52  89 SE17G24   29.72F FOG
CHAMBERLAIN    CLOUDY    59  58  94 SE21G30   29.64F FOG
MITCHELL       LGT RAIN  56  54  93 SE17G28   29.75F
YANKTON        CLOUDY    59  55  88 E7        29.80F
$$

ABBREVIATIONS USED IN REMARKS
   TC - TEMPERATURE IN CELSIUS
  WCI - WIND CHILL INDEX
   HX - HEAT INDEX
  VSB - VISIBILITY




USA.gov is the U.S. government's official web portal to all federal, state and local government web resources and services.